Theta_e
334 334 333 333 332 332 331 331 331 333 334 334 331 332 332 332 333 335 336 337 338 336 331 328 327 326 325 323 321 318 317 315 312 310 308 310 316 317
335 334 333 333 332 332 332 331 330 331 333 333 332 332 332 333 335 336 336 335 336 333 328 326 326 326 324 322 320 318 317 311 308 305 307 310 316 317
335 335 335 335 333 332 332 331 330 330 331 332 332 332 332 332 335 334 333 332 332 330 328 326 325 324 323 320 319 318 313 306 304 303 307 312 316 317
337 336 335 335 334 333 332 331 331 331 331 331 333 332 331 332 332 331 330 329 329 328 326 325 323 321 320 319 317 312 307 304 302 304 305 312 314 315
338 337 337 336 335 334 333 333 332 332 331 332 333 331 329 328 325 325 325 324 323 324 323 321 320 320 318 316 311 307 305 303 302 304 307 312 313 313
339 339 338 338 337 336 335 334 334 334 333 333 332 328 325 323 323 318 312 315 316 315 315 316 316 314 313 309 308 306 303 301 302 306 309 311 312 311
340 340 339 339 339 339 337 336 336 335 335 334 334 321 320 317 317 317 313 312 310 313 310 311 308 308 307 307 305 304 302 300 302 306 308 308 307 307
337 338 338 338 339 339 339 339 339 337 336 335 335 327 323 323 320 316 312 305 303 308 308 305 307 306 305 303 301 301 301 302 304 305 305 305 305 303
332 334 336 339 339 339 339 339 340 339 339 338 337 335 331 325 323 316 313 314 314 314 306 301 303 303 302 301 299 300 302 302 303 303 304 302 301 301
328 326 327 329 333 336 337 338 337 338 337 337 335 337 335 332 327 325 322 315 310 310 307 298 301 300 300 299 298 299 300 300 301 301 300 300 299 299
322 321 323 323 324 326 328 332 334 335 337 337 336 336 336 334 330 322 312 308 298 301 305 303 299 297 297 297 297 297 298 298 298 298 298 298 298 298
320 321 320 323 323 323 320 321 324 329 331 333 332 332 332 331 326 324 318 312 299 300 303 304 297 298 294 295 296 295 296 297 297 296 297 297 297 296
317 320 320 318 319 320 318 316 318 322 325 326 324 323 322 322 322 319 319 315 306 306 310 307 298 297 293 290 292 294 294 295 295 295 296 296 295 295
313 312 316 317 316 317 317 318 317 314 313 317 316 312 314 317 319 317 316 317 321 324 316 307 300 298 291 290 290 292 293 294 294 294 295 295 294 294
311 314 313 313 312 315 316 316 316 311 307 308 307 310 313 314 311 310 310 307 309 308 306 304 309 298 298 291 289 290 291 291 292 293 293 293 294 293
309 310 309 309 308 307 309 310 310 306 306 305 306 307 307 306 303 302 301 299 296 295 297 299 299 299 292 291 292 290 291 291 291 292 292 292 292 291
308 307 307 306 305 305 303 303 303 302 302 303 305 301 299 298 296 296 294 293 293 291 290 292 293 293 293 292 291 290 290 291 291 291 290 290 290 290
306 305 305 306 303 302 300 298 298 299 300 301 299 296 293 292 291 292 293 292 291 290 289 290 291 291 291 291 291 291 291 290 290 290 289 288 288 288
301 301 302 303 300 299 298 297 296 296 297 297 296 293 292 291 292 291 291 291 290 289 290 291 291 290 290 290 289 290 290 289 289 288 288 288 288 288
299 300 300 301 300 298 296 295 295 294 294 294 293 292 292 292 292 291 292 291 291 290 289 289 290 289 289 289 289 289 289 288 287 287 287 288 288 288
300 298 298 298 298 297 296 294 294 293 292 292 291 291 291 291 291 290 290 290 289 289 289 289 290 290 290 289 289 288 288 288 288 288 288 286 287 287
297 297 297 296 296 295 294 293 292 291 291 291 291 291 291 291 290 290 290 290 290 289 289 289 289 289 289 289 289 288 288 288 288 287 288 288 287 287
294 294 294 293 293 292 291 291 291 290 290 290 290 290 290 290 290 290 290 290 289 289 289 288 289 289 289 289 288 288 288 288 288 287 287 287 288 288
Wind_Speed
42 42 38 39 35 36 34 31 22 8 10 21 12 14 15 19 23 25 22 19 19 18 15 12 13 12 12 12 12 12 11 12 13 12 11 10 8 6
40 36 37 38 34 36 36 34 31 27 11 27 24 22 19 21 24 24 22 21 20 18 16 15 14 13 15 14 13 12 12 13 11 11 10 8 9 8
37 38 40 41 35 33 36 33 31 29 16 36 30 29 26 25 25 24 24 23 22 20 18 17 16 16 16 14 14 13 12 12 10 9 6 5 7 8
38 38 38 38 37 35 33 33 31 31 29 24 28 28 25 27 29 29 27 26 24 22 20 19 18 17 15 15 15 13 10 10 9 7 6 7 5 5
38 38 37 37 32 31 34 31 31 31 31 29 27 23 25 25 26 27 27 26 25 22 21 21 19 18 17 17 15 12 10 9 8 7 5 7 7 6
34 34 35 35 36 33 33 34 32 29 28 27 26 23 24 22 29 27 23 26 26 25 23 22 21 20 19 17 13 12 11 9 8 7 9 10 10 7
28 29 36 38 40 39 33 29 29 29 26 24 23 14 16 12 25 27 25 31 29 30 28 25 23 20 17 14 12 15 13 12 9 9 10 9 7 8
22 25 32 32 36 37 37 38 36 29 28 26 24 15 26 27 25 28 26 13 5 29 33 30 27 22 17 13 12 13 13 12 11 12 12 10 9 9
16 20 22 26 26 26 31 36 41 45 47 37 29 29 28 37 37 31 37 33 24 29 34 22 29 24 19 16 15 16 16 15 15 15 14 13 10 11
17 18 19 19 18 20 24 33 36 38 40 45 48 45 37 40 46 47 51 34 19 31 38 8 28 22 23 18 17 18 18 18 16 15 13 14 12 12
19 20 19 21 18 15 19 27 33 40 38 39 43 46 48 41 47 31 16 20 1 9 31 13 21 19 24 22 18 19 20 18 17 17 17 16 14 14
21 21 19 21 21 17 17 19 27 36 33 36 39 45 48 53 40 43 33 24 9 1 23 15 23 15 7 18 20 19 18 16 17 15 16 16 15 13
23 24 20 20 21 20 19 19 24 28 30 27 28 33 36 34 34 44 31 27 22 11 32 30 19 21 8 8 14 20 17 17 18 15 15 15 14 13
26 23 20 18 19 19 21 21 21 23 30 27 22 23 25 28 34 42 35 41 37 34 36 44 19 29 14 8 7 19 17 18 18 18 17 15 14 13
23 17 17 20 22 21 20 23 21 18 21 25 25 28 30 31 32 34 28 27 23 19 39 42 27 35 25 18 13 17 20 19 19 18 17 17 19 17
18 17 17 18 19 22 20 17 15 16 24 24 21 20 24 22 21 24 26 26 25 28 23 18 23 33 25 26 27 23 17 12 23 20 18 17 16 15
16 18 15 15 17 19 17 15 13 17 22 18 14 14 18 21 18 19 22 6 15 23 29 30 26 25 24 24 21 25 20 13 23 20 18 16 16 15
18 19 16 15 16 17 17 15 11 13 14 14 12 15 16 23 22 22 24 23 20 23 22 25 29 28 23 14 13 21 20 18 19 19 18 12 13 15
20 18 14 13 15 17 16 14 10 10 13 14 18 21 20 21 28 26 25 29 24 24 30 24 18 17 5 2 7 12 19 17 17 17 17 15 12 16
18 16 14 14 15 14 14 14 11 13 16 16 21 23 23 24 22 24 23 25 27 27 23 24 25 18 6 6 7 14 15 16 17 15 14 13 13 8
15 14 11 11 12 13 16 16 15 19 20 22 21 24 25 25 25 26 25 20 21 21 20 18 21 19 16 14 8 8 15 14 10 13 12 11 10 9
7 5 6 7 9 11 14 16 19 20 21 21 22 24 27 26 25 27 30 29 24 23 18 22 20 20 19 11 7 7 11 11 11 9 8 11 8 6
2 3 4 5 4 8 11 13 13 13 16 16 18 17 22 20 22 25 25 24 23 21 24 20 18 18 16 16 13 10 9 12 11 12 12 12 11 7
Wind_Direction
244 243 238 241 239 241 236 234 234 262 272 279 259 279 259 257 254 251 252 247 243 242 231 224 230 235 235 233 243 246 252 260 268 273 272 265 248 245
245 244 247 247 242 241 241 235 228 236 258 268 269 272 263 249 242 244 242 240 237 236 228 228 231 230 223 236 240 244 255 262 268 276 278 264 242 234
244 243 246 252 241 239 241 234 229 227 236 264 263 265 257 246 238 232 233 232 224 223 224 225 224 223 223 233 237 240 247 257 266 267 262 250 241 243
245 245 245 249 245 237 235 234 230 229 230 243 256 255 247 243 236 228 226 225 220 216 218 218 221 215 222 227 233 237 239 249 259 256 243 216 225 216
244 244 244 245 239 235 230 228 230 232 229 236 248 249 243 233 222 222 218 213 211 213 211 210 212 215 215 222 230 236 237 240 235 224 205 200 203 206
250 248 248 243 243 238 234 231 230 228 228 230 234 227 227 229 221 206 199 205 201 202 205 206 204 205 209 217 225 231 228 223 222 200 176 186 184 188
265 265 258 253 255 250 239 236 231 228 231 230 231 202 194 185 200 205 203 201 203 199 199 194 192 197 203 212 214 217 216 215 194 187 179 183 192 193
273 277 270 265 258 256 254 256 250 236 237 239 231 217 214 213 203 194 190 169 215 206 200 192 194 192 197 198 199 190 179 175 167 173 175 175 192 163
275 263 265 263 265 263 264 261 259 255 249 245 240 233 227 217 213 196 198 201 204 190 189 182 189 187 190 190 194 179 172 168 171 172 181 174 166 159
270 275 275 272 271 271 265 261 261 264 260 259 251 255 247 241 226 221 214 198 188 185 179 153 179 179 183 189 188 184 182 174 183 182 181 175 171 173
275 279 285 289 290 286 276 273 262 258 267 268 273 271 263 253 237 217 170 170 324 158 188 145 165 162 175 182 190 195 193 181 189 185 185 176 175 170
278 280 286 289 297 301 289 277 272 271 271 271 270 269 263 258 242 221 215 176 152 349 191 150 156 154 164 190 191 194 191 184 195 188 187 176 174 177
277 283 290 292 292 295 296 288 272 283 273 270 269 270 269 259 232 212 218 214 182 166 196 184 168 164 122 131 176 191 187 188 192 188 188 184 186 194
276 287 296 293 292 296 297 295 293 288 279 257 243 240 233 230 219 212 215 208 213 216 199 186 169 168 139 131 144 174 176 191 194 188 189 187 188 190
266 283 290 299 300 299 299 300 295 286 266 240 221 223 224 225 214 202 202 199 191 179 182 186 185 171 164 142 139 155 164 191 190 190 188 196 194 197
274 286 291 301 310 306 304 300 297 277 247 241 243 227 218 201 188 189 168 154 130 131 154 162 156 157 130 141 139 146 169 180 189 190 195 198 204 207
267 274 286 296 292 292 291 284 279 257 243 243 240 208 177 169 166 172 148 141 148 134 122 124 126 123 124 131 122 155 162 166 186 186 190 197 206 208
242 244 248 266 272 276 267 255 254 250 248 233 195 178 154 139 128 127 127 112 109 93 83 102 110 106 101 102 131 164 181 181 185 190 191 186 207 213
237 245 253 270 277 279 265 253 237 235 230 198 174 155 146 136 130 123 122 121 116 114 118 122 127 129 113 104 144 184 188 192 190 191 195 194 203 219
248 259 268 281 281 272 260 231 216 197 191 181 160 153 148 146 139 130 134 135 135 137 135 146 141 140 122 149 157 183 186 174 174 180 188 201 215 221
257 253 256 266 261 257 243 227 211 192 179 160 156 151 145 139 133 131 130 134 126 129 133 141 146 142 137 135 131 142 178 192 191 179 172 168 178 191
249 256 265 258 254 243 230 211 190 177 164 160 156 150 146 144 143 143 140 138 136 138 134 143 149 151 150 152 152 146 144 169 175 170 184 190 171 191
331 316 284 268 259 242 218 190 171 158 153 150 147 145 144 135 133 127 124 126 131 134 138 144 156 166 162 158 159 151 154 156 159 181 204 205 208 214